Content
SEND FEEDBACK

Daily
Averages
Monthly
Summary
Mauritania

PORT-ETIENNE, MAURITANIA


Home > Africa > Mauritania
Elevation: 10 feet     Latitude: 20 54N     Longitude: 017 06W

WEATHER
 
SELECT A DAY
Number of Records: 117,602;   Date Range: 7/1/96 - 7/23/14
 
SHARE

PRINT THIS DATA

[ ← Previous Day ]
WEATHER ALMANAC - FEBRUARY 18, 2013
[ Next Day → ]
[ °C ]   °F
Weather ElementAverageHighLow
Temperature67.5 °F78.8 °F (2:00 pm)55.4 °F (8:00 am)
Dewpoint42.9 °F60 °F (9:00 pm)23 °F (1:00 pm)
Humidity46.2 %83 % (9:00 pm)9 % (12:00 pm)
Barometer29.94 in29.98 in (12:00 am)29.89 in (4:00 pm)
Wind Speed7.9 mph15 mph (6:00 pm)
Weather ElementAverage
Visibility5 mi
Wind DirectionWSW (236.6 °)

Weather ElementTotal
Precipitation---
Cooling Degree Days2.1 (Base 65)
Growing Degree Days17.1 (Base 50)
Averaged from 29 records on February 18, 2013
WEATHER CONDITIONS BREAKOUT
WIND DIRECTION BREAKOUT
WEATHER BY HOUR - FEBRUARY 18, 2013
[ °C ]   °F
Local TimeTemperatureDewpointHumidityBarometerVisibilityWind DirectionWind SpeedGust SpeedPrecipitationEventsConditions
12:00 AM66.2 °F50.0 °F56 %29.98 in5.0 miNorth (360°)11.5 mph
1:00 AM64.4 °F48.2 °F56 %29.95 in5.0 miNorth (350°)11.5 mph
2:00 AM64.4 °F48.2 °F56 %29.95 in5.0 miNorth (350°)10.4 mph
3:00 AM62.0 °F52.0 °F61 %29.96 in5.0 miNorth9.2 mph
3:00 AM62.6 °F50.0 °F63 %29.95 in5.0 miNNW (330°)11.5 mph
5:00 AM59.0 °F50.0 °F72 %29.92 inNorth (350°)3.5 mph
6:00 AM57.2 °F48.2 °F72 %29.92 inNorth (350°)5.8 mph
6:00 AM59.0 °F52.0 °F72 %29.94 in5.0 miNorth5.8 mph
7:00 AM57.2 °F44.6 °F63 %29.92 in5.0 miNNW (340°)1.2 mph
8:00 AM55.4 °F44.6 °F67 %29.92 in5.0 miNorth (360°)4.6 mph
9:00 AM64.0 °F47.0 °F44 %29.96 in5.0 miEast (90°)3.5 mphClear
9:00 AM64.4 °F44.6 °F49 %29.95 in5.0 miEast (100°)3.5 mph
10:00 AM69.8 °F41.0 °F35 %29.95 in5.0 miEast (90°)2.3 mph
11:00 AM71.6 °F28.4 °F20 %29.98 in5.0 miVariable1.2 mph
12:00 PM75.2 °F30.2 °F19 %29.95 in5.0 miVariable2.3 mph
12:00 PM75.0 °F28.0 °F9 %29.97 in5.0 miSSE (150°)1.2 mphClear
1:00 PM77.0 °F23.0 °F13 %29.95 in5.0 miVariable2.3 mph
2:00 PM78.8 °F30.2 °F17 %29.92 in5.0 miVariable3.5 mph
3:00 PM74.0 °F35.0 °F15 %29.93 in5.0 miWNW (290°)11.5 mph
3:00 PM75.2 °F33.8 °F22 %29.92 in5.0 miNW (310°)10.4 mph
4:00 PM75.2 °F30.2 °F19 %29.89 in5.0 miNW (310°)10.4 mph
5:00 PM75.2 °F30.2 °F19 %29.89 in5.0 miNW (320°)11.5 mph
6:00 PM73.4 °F32.0 °F22 %29.89 in5.0 miNNW (340°)13.8 mph
6:00 PM74.0 °F33.0 °F12 %29.91 in5.0 miNNW (330°)15.0 mph
7:00 PM68.0 °F55.4 °F64 %29.89 in5.0 miNNW (330°)9.2 mph
9:00 PM65.0 °F60.0 °F79 %29.96 in5.0 miNNW (330°)11.5 mph
9:00 PM64.4 °F59.0 °F83 %29.95 in5.0 miNorth (360°)13.8 mphScattered Clouds
10:00 PM64.4 °F59.0 °F83 %29.98 in5.0 miNorth (360°)13.8 mph
11:00 PM64.4 °F57.2 °F77 %29.98 in5.0 miNorth (360°)13.8 mph
Hourly data recorded from GQPP, located miles away from Port-Etienne, Mauritania







STORIES FROM OUR PARTNERS